EW4415 Weather Reports


Display with metric or nautical units.
time (UTC)temp
F
wind
direction
speed
MPH
gust
MPH
rain 1hr
in
rain 24hr
in
rain mn
in
humidity
%
barometer
mb
20260905213004 51 32 0.0 0.0 0.00 0.00 0.00 1 999.4
20260905211609 52 32 0.0 0.0 0.00 0.00 0.00 1 999.3
20260905210115 52 32 0.0 0.0 0.00 0.00 0.00 1 999.1
20260905204550 52 32 0.0 0.0 0.00 0.00 0.00 1 998.9
20260905203047 52 32 0.0 0.0 0.00 0.00 0.00 1 998.8
20260905201542 52 32 0.0 0.0 0.00 0.00 0.00 1 998.6
20260905200106 52 32 0.0 0.0 0.00 0.00 0.00 1 998.5
20260905194534 52 32 0.0 0.0 0.00 0.00 0.00 1 998.5
20260905193036 52 32 0.0 0.0 0.00 0.00 0.00 1 998.3
20260905191526 53 32 0.0 0.0 0.00 0.00 0.00 1 998.2
20260905190025 53 32 0.0 0.0 0.00 0.00 0.00 1 998.2
20260905184530 54 32 0.0 0.0 0.00 0.01 0.00 1 998.2
20260905183011 54 32 0.0 0.0 0.00 0.01 0.00 1 998.1
20260905181508 54 32 0.0 0.0 0.00 0.01 0.00 1 998.0
20260905180008 54 32 0.0 0.0 0.00 0.01 0.00 1 998.0
20260905174608 54 32 0.0 0.0 0.00 0.01 0.00 1 997.8
20260905173055 55 32 0.0 0.0 0.00 0.01 0.00 1 997.8
20260905171550 55 32 0.0 0.0 0.00 0.01 0.00 1 997.7
20260905170046 55 32 0.0 0.0 0.00 0.01 0.00 1 997.5
20260905164544 55 32 0.0 0.0 0.00 0.01 0.00 1 997.3
20260905163038 56 32 0.0 0.0 0.00 0.01 0.00 1 997.2
20260905161532 56 32 0.0 0.0 0.00 0.01 0.00 1 997.0
20260905160028 57 32 0.0 0.0 0.00 0.01 0.00 1 996.8
20260905154527 57 32 0.0 0.0 0.00 0.01 0.00 1 996.8
20260905153027 57 32 0.0 0.0 0.00 0.01 0.00 5 996.6
20260905151516 58 32 0.0 0.0 0.00 0.01 0.00 19 996.6
20260905150019 58 32 0.0 0.0 0.00 0.01 0.00 33 996.5
20260905144512 59 32 0.0 2.0 0.00 0.01 0.00 41 996.2
20260905143002 59 312 0.0 1.0 0.00 0.01 0.00 19 996.0
20260905141558 60 311 0.0 0.0 0.00 0.01 0.00 29 995.9
20260905140054 60 279 0.0 0.0 0.00 0.01 0.00 40 995.8
20260905134551 61 263 0.0 4.0 0.00 0.08 0.00 40 995.7
20260905133044 61 295 0.0 4.0 0.00 0.08 0.00 36 995.8
20260905131551 60 323 0.0 3.0 0.00 0.08 0.00 26 995.7
20260905130036 59 281 0.0 1.0 0.00 0.08 0.00 15 995.7
20260905124534 59 281 0.0 0.0 0.00 0.08 0.00 24 995.6
20260905123053 60 296 0.0 3.0 0.00 0.08 0.00 39 995.5
20260905121522 60 310 0.0 2.0 0.00 0.08 0.00 21 995.4
20260905120024 59 141 0.0 0.0 0.00 0.08 0.00 4 995.3
20260905114519 59 327 0.0 0.0 0.00 0.08 0.00 1 995.4
20260905113010 59 330 0.0 0.0 0.00 0.08 0.00 1 995.3
20260905111505 59 311 0.0 0.0 0.00 0.08 0.00 1 995.2
20260905110004 59 279 0.0 1.0 0.00 0.08 0.00 1 995.3
20260905104558 59 256 0.0 0.0 0.00 0.08 0.00 1 995.1
20260905103058 60 256 0.0 0.0 0.00 0.08 0.00 1 994.9
20260905101548 61 5 0.0 3.0 0.00 0.08 0.00 1 994.8
20260905100054 61 321 0.0 0.0 0.00 0.08 0.00 1 994.7
20260905094540 59 267 0.0 0.0 0.00 0.08 0.00 1 994.6
20260905093035 59 231 0.0 0.0 0.00 0.08 0.00 1 994.7
20260905091540 59 225 0.0 0.0 0.00 0.08 0.00 1 994.7
20260905090026 58 254 0.0 2.0 0.00 0.08 0.00 1 994.5
20260905084522 57 309 0.0 0.0 0.00 0.08 0.00 1 994.5
20260905083018 56 245 0.0 0.0 0.00 0.08 0.00 1 994.5
20260905081515 56 261 0.0 1.0 0.00 0.08 0.00 1 994.4
20260905080022 55 279 0.0 0.0 0.00 0.08 0.00 1 994.4
20260905074504 55 284 0.0 1.0 0.00 0.08 0.00 1 994.4
20260905073059 55 291 0.0 0.0 0.00 0.08 0.00 1 994.3
20260905071600 54 292 0.0 0.0 0.00 0.08 0.00 1 994.2
20260905070055 52 292 0.0 0.0 0.00 0.08 0.00 1 994.2
20260905064553 51 292 0.0 0.0 0.00 0.08 0.00 1 994.1
20260905063044 50 292 0.0 0.0 0.00 0.08 0.00 1 994.1
20260905061540 48 292 0.0 0.0 0.00 0.08 0.00 1 994.0
20260905060046 46 292 0.0 0.0 0.00 0.08 0.00 1 994.0
20260905054537 44 292 0.0 0.0 0.00 0.08 0.00 1 994.0
20260905053027 43 292 0.0 0.0 0.00 0.08 0.00 1 994.0
20260905051625 42 292 0.0 0.0 0.00 0.08 0.00 1 993.9
20260905050024 42 292 0.0 0.0 0.00 0.08 0.00 1 994.1
20260905044519 41 292 0.0 0.0 0.00 0.08 0.00 1 994.2
20260905043010 40 292 0.0 0.0 0.00 0.08 0.00 1 994.2
20260905041508 40 292 0.0 0.0 0.00 0.08 0.00 1 994.2
20260905040006 40 292 0.0 0.0 0.00 0.08 0.00 1 994.1
20260905034501 40 292 0.0 0.0 0.00 0.08 0.00 1 994.2
20260905033057 40 292 0.0 0.0 0.00 0.08 0.00 1 994.2
20260905031553 40 292 0.0 0.0 0.00 0.08 0.00 1 994.3
20260905030055 40 292 0.0 0.0 0.00 0.08 0.00 1 994.2
20260905024544 40 292 0.0 0.0 0.00 0.08 0.00 1 994.2
20260905023040 40 292 0.0 0.0 0.00 0.08 0.00 1 994.2
20260905021543 40 292 0.0 0.0 0.00 0.08 0.00 1 994.2
20260905020033 41 292 0.0 0.0 0.00 0.08 0.00 1 994.2
20260905014526 41 292 0.0 0.0 0.00 0.08 0.00 1 994.2
20260905013022 41 292 0.0 0.0 0.00 0.08 0.00 1 994.3
20260905011517 41 292 0.0 0.0 0.00 0.08 0.00 1 994.3
20260905010013 41 292 0.0 0.0 0.00 0.08 0.00 1 994.3
20260905004511 42 292 0.0 0.0 0.00 0.08 0.00 1 994.3
20260905003004 42 292 0.0 0.0 0.00 0.08 0.00 1 994.4
20260905001610 42 292 0.0 0.0 0.00 0.08 0.00 1 994.4
20260905000100 42 292 0.0 0.0 0.00 0.08 0.00 1 994.5
20260904234554 43 292 0.0 0.0 0.00 0.08 0.00 1 994.6
20260904233058 43 292 0.0 0.0 0.00 0.08 0.00 1 994.8
20260904231542 43 292 0.0 0.0 0.00 0.08 0.00 1 995.0
20260904230043 43 292 0.0 0.0 0.00 0.08 0.00 1 995.1
20260904224537 44 292 0.0 0.0 0.00 0.08 0.00 1 995.2
20260904223034 44 292 0.0 0.0 0.00 0.08 0.00 1 995.4
20260904221525 44 292 0.0 0.0 0.00 0.08 0.00 1 995.4
20260904220021 45 292 0.0 0.0 0.00 0.08 0.00 1 995.6
20260904214516 45 292 0.0 0.0 0.00 0.08 0.00 1 995.6